Location: Alladorf
(49.9620°N, 11.3790°E)
Time: 20:20:17
(UTC+00:00)

Cosmos 2181 Rocket - Pass Details

Date: 29 November 2020
Orbit: 951 x 1015 km, 82.9° (Epoch: 24 January)

Event Time Altitude Azimuth Distance (km) Brightness Sun altitude
Rises 04:55:09 0° 344° (NNW) 3,690 6.8 -17.5°
Reaches altitude 10° 04:57:52 10° 337° (NNW) 2,728 6.0 -17.1°
Maximum altitude 05:03:27 36° 273° (W) 1,482 4.4 -16.2°
Drops below altitude 10° 05:08:57 10° 209° (SSW) 2,681 6.2 -15.4°
Sets 05:11:36 0° 201° (SSW) 3,618 6.9 -15.0°
